Time,TemperatureF,DewpointF,PressureIn,WindDirection,WindDirectionDegrees,WindSpeedMPH,WindSpeedGustMPH,Humidity,HourlyPrecipIn,Conditions,Clouds,dailyrainin,SoftwareType,DateUTC
2013-08-20 00:01:00,62.9,59.6,29.96,SW,232,0.0,0.0,89,0.00,,---,0.00,VWS V14.01,2013-08-20 07:01:00,
2013-08-20 00:06:00,62.8,59.5,29.96,SW,232,0.0,0.0,89,0.00,,---,0.00,VWS V14.01,2013-08-20 07:06:00,
2013-08-20 00:11:00,62.6,59.3,29.96,SW,231,0.0,0.0,89,0.00,,---,0.00,VWS V14.01,2013-08-20 07:11:00,
2013-08-20 00:16:00,62.5,59.2,29.96,SW,232,0.0,0.0,89,0.00,,---,0.00,VWS V14.01,2013-08-20 07:16:00,
2013-08-20 00:21:00,62.4,59.1,29.96,SW,232,0.0,0.0,89,0.00,,---,0.00,VWS V14.01,2013-08-20 07:21:00,
2013-08-20 00:26:00,62.2,58.9,29.96,SW,232,0.0,0.0,89,0.00,,---,0.00,VWS V14.01,2013-08-20 07:26:00,
2013-08-20 00:31:00,62.2,59.2,29.96,SW,232,0.0,0.0,90,0.00,,---,0.00,VWS V14.01,2013-08-20 07:31:00,
2013-08-20 00:36:00,62.2,59.5,29.96,SW,232,0.0,0.0,91,0.00,,---,0.00,VWS V14.01,2013-08-20 07:36:00,
2013-08-20 00:41:00,62.2,59.5,29.96,SW,232,0.0,0.0,91,0.00,,---,0.00,VWS V14.01,2013-08-20 07:41:00,
2013-08-20 00:46:00,62.2,59.5,29.96,SW,232,0.0,0.0,91,0.00,,---,0.00,VWS V14.01,2013-08-20 07:46:00,
2013-08-20 00:51:00,62.0,59.0,29.96,SW,232,0.0,0.0,90,0.00,,---,0.00,VWS V14.01,2013-08-20 07:51:00,
2013-08-20 00:56:00,61.8,58.8,29.96,SW,232,0.0,0.0,90,0.00,,---,0.00,VWS V14.01,2013-08-20 07:56:00,
2013-08-20 01:01:00,61.7,58.7,29.96,SW,232,0.0,0.0,90,0.00,,---,0.00,VWS V14.01,2013-08-20 08:01:00,
2013-08-20 01:06:00,61.6,59.0,29.96,SW,231,0.0,0.0,91,0.00,,---,0.00,VWS V14.01,2013-08-20 08:06:00,
2013-08-20 01:11:00,61.6,59.0,29.96,SW,232,0.0,0.0,91,0.00,,---,0.00,VWS V14.01,2013-08-20 08:11:00,
2013-08-20 01:16:00,61.6,59.0,29.96,SW,231,0.0,0.0,91,0.00,,---,0.00,VWS V14.01,2013-08-20 08:16:00,
2013-08-20 01:21:00,61.5,59.2,29.96,SW,232,0.0,0.0,92,0.00,,---,0.00,VWS V14.01,2013-08-20 08:21:00,
2013-08-20 01:26:00,61.5,59.2,29.95,SW,231,0.0,0.0,92,0.00,,---,0.00,VWS V14.01,2013-08-20 08:26:00,
2013-08-20 01:31:00,61.4,58.8,29.95,SW,232,0.0,0.0,91,0.00,,---,0.00,VWS V14.01,2013-08-20 08:31:00,
2013-08-20 01:36:00,61.2,58.6,29.96,SW,231,0.0,0.0,91,0.00,,---,0.00,VWS V14.01,2013-08-20 08:36:00,
2013-08-20 01:41:00,61.0,58.4,29.95,SW,231,0.0,0.0,91,0.00,,---,0.00,VWS V14.01,2013-08-20 08:41:00,
2013-08-20 01:46:00,60.8,58.2,29.95,SW,231,0.0,0.0,91,0.00,,---,0.00,VWS V14.01,2013-08-20 08:46:00,
2013-08-20 01:51:00,60.7,58.1,29.95,SW,232,0.0,0.0,91,0.00,,---,0.00,VWS V14.01,2013-08-20 08:51:00,
2013-08-20 01:56:00,60.6,58.3,29.95,SW,231,0.0,0.0,92,0.00,,---,0.00,VWS V14.01,2013-08-20 08:56:00,
2013-08-20 02:01:00,60.8,58.8,29.95,SW,232,0.0,0.0,93,0.00,,---,0.00,VWS V14.01,2013-08-20 09:01:00,
2013-08-20 02:06:00,60.8,58.8,29.95,SW,231,0.0,0.0,93,0.00,,---,0.00,VWS V14.01,2013-08-20 09:06:00,
2013-08-20 02:11:00,60.8,58.8,29.95,SW,231,0.0,0.0,93,0.00,,---,0.00,VWS V14.01,2013-08-20 09:11:00,
2013-08-20 02:16:00,60.7,58.4,29.95,SW,232,0.0,0.0,92,0.00,,---,0.00,VWS V14.01,2013-08-20 09:16:00,
2013-08-20 02:21:00,60.6,58.3,29.95,SW,231,0.0,0.0,92,0.00,,---,0.00,VWS V14.01,2013-08-20 09:21:00,
2013-08-20 02:26:00,60.6,58.6,29.95,SW,232,0.0,0.0,93,0.00,,---,0.00,VWS V14.01,2013-08-20 09:26:00,
2013-08-20 02:31:00,60.6,58.6,29.96,SW,231,0.0,0.0,93,0.00,,---,0.00,VWS V14.01,2013-08-20 09:31:00,
2013-08-20 02:36:00,60.8,59.1,29.95,SW,231,0.0,0.0,94,0.00,,---,0.00,VWS V14.01,2013-08-20 09:36:00,
2013-08-20 02:41:00,60.9,58.9,29.95,SW,231,0.0,0.0,93,0.00,,---,0.00,VWS V14.01,2013-08-20 09:41:00,
2013-08-20 02:46:00,60.9,58.9,29.95,SW,231,0.0,0.0,93,0.00,,---,0.00,VWS V14.01,2013-08-20 09:46:00,
2013-08-20 02:51:00,61.1,59.4,29.95,SW,231,0.0,0.0,94,0.00,,---,0.00,VWS V14.01,2013-08-20 09:51:00,
2013-08-20 02:56:00,61.1,59.1,29.95,SW,231,0.0,0.0,93,0.00,,---,0.00,VWS V14.01,2013-08-20 09:56:00,
2013-08-20 03:01:00,61.1,59.1,29.95,SW,232,0.0,0.0,93,0.00,,---,0.00,VWS V14.01,2013-08-20 10:01:00,
2013-08-20 03:06:00,61.3,59.6,29.95,SW,231,0.0,0.0,94,0.00,,---,0.00,VWS V14.01,2013-08-20 10:06:00,
2013-08-20 03:11:00,61.5,59.8,29.95,SW,232,0.0,0.0,94,0.00,,---,0.00,VWS V14.01,2013-08-20 10:11:00,
2013-08-20 03:16:00,61.5,59.8,29.95,SW,232,0.0,0.0,94,0.00,,---,0.00,VWS V14.01,2013-08-20 10:16:00,
2013-08-20 03:21:00,61.5,59.8,29.95,SW,232,0.0,0.0,94,0.00,,---,0.00,VWS V14.01,2013-08-20 10:21:00,
2013-08-20 03:26:00,61.6,59.9,29.95,SW,232,0.0,0.0,94,0.00,,---,0.00,VWS V14.01,2013-08-20 10:26:00,
2013-08-20 03:31:00,61.7,60.0,29.95,SW,231,0.0,0.0,94,0.00,,---,0.00,VWS V14.01,2013-08-20 10:31:00,
2013-08-20 03:36:00,61.8,60.1,29.95,SW,231,0.0,0.0,94,0.00,,---,0.00,VWS V14.01,2013-08-20 10:36:00,
2013-08-20 03:41:00,61.8,60.1,29.95,SW,231,0.0,0.0,94,0.00,,---,0.00,VWS V14.01,2013-08-20 10:41:00,
2013-08-20 03:46:00,61.8,60.1,29.95,SW,232,0.0,0.0,94,0.00,,---,0.00,VWS V14.01,2013-08-20 10:46:00,
2013-08-20 03:51:00,61.8,60.1,29.95,SW,232,0.0,0.0,94,0.00,,---,0.00,VWS V14.01,2013-08-20 10:51:00,
2013-08-20 03:56:00,61.8,60.1,29.95,SW,231,0.0,0.0,94,0.00,,---,0.00,VWS V14.01,2013-08-20 10:56:00,
2013-08-20 04:01:00,61.7,59.7,29.94,SW,231,0.0,0.0,93,0.00,,---,0.00,VWS V14.01,2013-08-20 11:01:00,
2013-08-20 04:06:00,61.7,60.0,29.94,SW,231,0.0,0.0,94,0.00,,---,0.00,VWS V14.01,2013-08-20 11:06:00,
2013-08-20 04:11:00,61.7,60.0,29.94,SW,232,0.0,0.0,94,0.00,,---,0.00,VWS V14.01,2013-08-20 11:11:00,
2013-08-20 04:16:00,61.7,60.0,29.94,SW,232,0.0,0.0,94,0.00,,---,0.00,VWS V14.01,2013-08-20 11:16:00,
2013-08-20 04:21:00,61.7,60.0,29.95,SW,232,0.0,0.0,94,0.00,,---,0.00,VWS V14.01,2013-08-20 11:21:00,
2013-08-20 04:26:00,61.7,60.0,29.94,SW,231,0.0,0.0,94,0.00,,---,0.00,VWS V14.01,2013-08-20 11:26:00,
2013-08-20 04:31:00,61.7,60.0,29.94,SW,232,0.0,0.0,94,0.00,,---,0.00,VWS V14.01,2013-08-20 11:31:00,
2013-08-20 04:36:00,61.7,60.0,29.94,SW,232,0.0,0.0,94,0.00,,---,0.00,VWS V14.01,2013-08-20 11:36:00,
2013-08-20 04:41:00,61.7,60.0,29.94,SW,232,0.0,0.0,94,0.00,,---,0.00,VWS V14.01,2013-08-20 11:41:00,
2013-08-20 04:46:00,61.7,60.0,29.94,SW,232,0.0,0.0,94,0.00,,---,0.00,VWS V14.01,2013-08-20 11:46:00,
2013-08-20 04:51:00,61.7,60.0,29.93,SW,232,0.0,1.0,94,0.00,,---,0.00,VWS V14.01,2013-08-20 11:51:00,
2013-08-20 04:56:00,61.8,60.1,29.94,SW,232,0.0,1.0,94,0.00,,---,0.00,VWS V14.01,2013-08-20 11:56:00,
2013-08-20 05:01:00,61.8,60.1,29.94,SW,231,0.0,0.0,94,0.00,,---,0.00,VWS V14.01,2013-08-20 12:01:00,
2013-08-20 05:06:00,61.8,60.1,29.94,SW,232,0.0,0.0,94,0.00,,---,0.00,VWS V14.01,2013-08-20 12:06:00,
2013-08-20 05:11:00,61.7,60.0,29.94,SW,232,0.0,0.0,94,0.00,,---,0.00,VWS V14.01,2013-08-20 12:11:00,
2013-08-20 05:16:00,61.7,60.0,29.94,SW,231,0.0,0.0,94,0.00,,---,0.00,VWS V14.01,2013-08-20 12:16:00,
2013-08-20 05:21:00,61.7,60.0,29.94,SW,232,0.0,0.0,94,0.00,,---,0.00,VWS V14.01,2013-08-20 12:21:00,
2013-08-20 05:26:00,61.7,60.0,29.94,SW,232,0.0,0.0,94,0.00,,---,0.00,VWS V14.01,2013-08-20 12:26:00,
2013-08-20 05:31:00,61.6,59.9,29.94,SW,232,0.0,1.0,94,0.00,,---,0.00,VWS V14.01,2013-08-20 12:31:00,
2013-08-20 05:36:00,61.5,59.8,29.94,SW,232,0.0,1.0,94,0.00,,---,0.00,VWS V14.01,2013-08-20 12:36:00,
2013-08-20 05:41:00,61.5,59.8,29.94,SW,232,0.0,1.0,94,0.00,,---,0.00,VWS V14.01,2013-08-20 12:41:00,
2013-08-20 05:46:00,61.5,59.8,29.94,SW,231,0.0,1.0,94,0.00,,---,0.00,VWS V14.01,2013-08-20 12:46:00,
2013-08-20 05:51:00,61.5,59.8,29.94,SW,232,0.0,1.0,94,0.00,,---,0.00,VWS V14.01,2013-08-20 12:51:00,
2013-08-20 05:56:00,61.4,59.7,29.94,SW,232,0.0,1.0,94,0.00,,---,0.00,VWS V14.01,2013-08-20 12:56:00,
2013-08-20 06:01:00,61.4,59.7,29.94,SW,232,0.0,0.0,94,0.00,,---,0.00,VWS V14.01,2013-08-20 13:01:00,
2013-08-20 06:06:00,61.4,59.7,29.95,SW,232,0.0,0.0,94,0.00,,---,0.00,VWS V14.01,2013-08-20 13:06:00,
2013-08-20 06:11:00,61.4,59.7,29.95,SW,232,0.0,0.0,94,0.00,,---,0.00,VWS V14.01,2013-08-20 13:11:00,
2013-08-20 06:16:00,61.4,59.7,29.95,SW,231,0.0,0.0,94,0.00,,---,0.00,VWS V14.01,2013-08-20 13:16:00,
2013-08-20 06:21:00,61.4,60.0,29.95,SW,231,0.0,0.0,95,0.00,,---,0.00,VWS V14.01,2013-08-20 13:21:00,
2013-08-20 06:26:00,61.4,60.0,29.95,SW,232,0.0,0.0,95,0.00,,---,0.00,VWS V14.01,2013-08-20 13:26:00,
2013-08-20 06:31:00,61.5,60.1,29.95,SW,232,0.0,0.0,95,0.00,,---,0.00,VWS V14.01,2013-08-20 13:31:00,
2013-08-20 06:36:00,61.6,60.2,29.96,SW,231,0.0,0.0,95,0.00,,---,0.00,VWS V14.01,2013-08-20 13:36:00,
2013-08-20 06:41:00,61.6,60.2,29.96,SW,231,0.0,0.0,95,0.00,,---,0.00,VWS V14.01,2013-08-20 13:41:00,
2013-08-20 06:46:00,61.7,60.3,29.95,SW,232,0.0,1.0,95,0.00,,---,0.00,VWS V14.01,2013-08-20 13:46:00,
2013-08-20 06:51:00,61.6,60.2,29.95,North,355,0.0,2.0,95,0.00,,---,0.00,VWS V14.01,2013-08-20 13:51:00,
2013-08-20 06:56:00,61.7,60.3,29.95,North,355,0.0,2.0,95,0.00,,---,0.00,VWS V14.01,2013-08-20 13:56:00,
2013-08-20 07:01:00,61.7,60.3,29.96,North,355,0.0,1.0,95,0.00,,---,0.00,VWS V14.01,2013-08-20 14:01:00,
2013-08-20 07:06:00,61.7,60.0,29.96,North,355,0.0,1.0,94,0.00,,---,0.00,VWS V14.01,2013-08-20 14:06:00,
2013-08-20 07:11:00,61.8,60.4,29.96,North,355,0.0,1.0,95,0.00,,---,0.00,VWS V14.01,2013-08-20 14:11:00,
2013-08-20 07:16:00,61.9,60.5,29.96,North,355,0.0,1.0,95,0.00,,---,0.00,VWS V14.01,2013-08-20 14:16:00,
2013-08-20 07:21:00,62.2,60.8,29.97,North,355,0.0,1.0,95,0.00,,---,0.00,VWS V14.01,2013-08-20 14:21:00,
2013-08-20 07:26:00,62.3,60.8,29.97,North,355,0.0,1.0,95,0.00,,---,0.00,VWS V14.01,2013-08-20 14:26:00,
2013-08-20 07:31:00,62.4,60.7,29.97,North,355,0.0,0.0,94,0.00,,---,0.00,VWS V14.01,2013-08-20 14:31:00,
2013-08-20 07:36:00,62.6,60.8,29.97,North,355,0.0,0.0,94,0.00,,---,0.00,VWS V14.01,2013-08-20 14:36:00,
2013-08-20 07:41:00,62.7,61.0,29.97,NNE,17,0.0,1.0,94,0.00,,---,0.00,VWS V14.01,2013-08-20 14:41:00,
2013-08-20 07:46:00,62.8,61.0,29.97,NNE,17,0.0,1.0,94,0.00,,---,0.00,VWS V14.01,2013-08-20 14:46:00,
2013-08-20 07:51:00,62.9,61.2,29.97,NNE,17,0.0,1.0,94,0.00,,---,0.00,VWS V14.01,2013-08-20 14:51:00,
2013-08-20 07:56:00,63.0,61.0,29.97,NNE,17,0.0,1.0,93,0.00,,---,0.00,VWS V14.01,2013-08-20 14:56:00,
2013-08-20 08:01:00,63.2,61.2,29.97,East,86,0.0,1.0,93,0.00,,---,0.00,VWS V14.01,2013-08-20 15:01:00,
2013-08-20 08:06:00,63.4,61.3,29.97,East,86,0.0,1.0,93,0.00,,---,0.00,VWS V14.01,2013-08-20 15:06:00,
2013-08-20 08:11:00,63.9,61.8,29.97,East,86,0.0,1.0,93,0.00,,---,0.00,VWS V14.01,2013-08-20 15:11:00,
2013-08-20 08:16:00,64.4,61.7,29.97,East,84,0.0,2.0,91,0.00,,---,0.00,VWS V14.01,2013-08-20 15:16:00,
2013-08-20 08:21:00,64.8,61.8,29.97,SE,128,0.0,4.0,90,0.00,,---,0.00,VWS V14.01,2013-08-20 15:21:00,
2013-08-20 08:26:00,65.3,62.0,29.97,SSE,154,2.0,8.0,89,0.00,,---,0.00,VWS V14.01,2013-08-20 15:26:00,
2013-08-20 08:31:00,65.5,61.9,29.97,SSW,200,0.0,5.0,88,0.00,,---,0.00,VWS V14.01,2013-08-20 15:31:00,
2013-08-20 08:36:00,65.7,61.7,29.97,West,276,0.0,5.0,87,0.00,,---,0.00,VWS V14.01,2013-08-20 15:36:00,
2013-08-20 08:41:00,65.8,61.8,29.97,SSE,156,0.0,5.0,87,0.00,,---,0.00,VWS V14.01,2013-08-20 15:41:00,
2013-08-20 08:46:00,66.3,62.3,29.97,South,169,0.0,5.0,87,0.00,,---,0.00,VWS V14.01,2013-08-20 15:46:00,
2013-08-20 08:51:00,66.6,62.3,29.97,ESE,119,0.0,5.0,86,0.00,,---,0.00,VWS V14.01,2013-08-20 15:51:00,
2013-08-20 08:56:00,66.9,62.2,29.97,SE,135,0.0,5.0,85,0.00,,---,0.00,VWS V14.01,2013-08-20 15:56:00,
2013-08-20 09:01:00,67.4,62.4,29.98,SE,138,2.0,2.0,84,0.00,,---,0.00,VWS V14.01,2013-08-20 16:01:00,
2013-08-20 09:06:00,67.5,62.5,29.98,SSE,151,0.0,7.0,84,0.00,,---,0.00,VWS V14.01,2013-08-20 16:06:00,
2013-08-20 09:11:00,67.9,62.5,29.98,SSW,204,0.0,7.0,83,0.00,,---,0.00,VWS V14.01,2013-08-20 16:11:00,
2013-08-20 09:15:00,68.0,62.3,29.99,South,190,1.0,7.0,82,0.00,,---,0.00,VWS V14.01,2013-08-20 16:15:00,
2013-08-20 09:21:00,67.9,62.2,29.98,West,259,0.0,7.0,82,0.00,,---,0.00,VWS V14.01,2013-08-20 16:21:00,
2013-08-20 09:26:00,68.2,62.5,29.98,SW,219,0.0,7.0,82,0.00,,---,0.00,VWS V14.01,2013-08-20 16:26:00,
2013-08-20 09:31:00,68.2,62.2,29.98,SE,130,1.0,1.0,81,0.00,,---,0.00,VWS V14.01,2013-08-20 16:31:00,
2013-08-20 09:36:00,68.5,62.5,29.98,South,188,5.0,5.0,81,0.00,,---,0.00,VWS V14.01,2013-08-20 16:36:00,
2013-08-20 09:41:00,68.5,62.1,29.98,SW,217,0.0,5.0,80,0.00,,---,0.00,VWS V14.01,2013-08-20 16:41:00,
2013-08-20 09:46:00,69.0,62.6,29.99,SW,234,0.0,5.0,80,0.00,,---,0.00,VWS V14.01,2013-08-20 16:46:00,
2013-08-20 09:50:00,69.6,62.8,29.99,SSE,159,2.0,5.0,79,0.00,,---,0.00,VWS V14.01,2013-08-20 16:50:00,
2013-08-20 09:55:00,69.9,62.7,29.99,SW,235,0.0,5.0,78,0.00,,---,0.00,VWS V14.01,2013-08-20 16:55:00,
2013-08-20 10:00:00,70.5,63.0,29.99,West,263,0.0,5.0,77,0.00,,---,0.00,VWS V14.01,2013-08-20 17:00:00,
2013-08-20 10:05:00,70.8,62.9,29.99,West,272,2.0,5.0,76,0.00,,---,0.00,VWS V14.01,2013-08-20 17:05:00,
2013-08-20 10:10:00,71.0,63.1,29.98,SW,217,0.0,5.0,76,0.00,,---,0.00,VWS V14.01,2013-08-20 17:10:00,
2013-08-20 10:15:00,71.4,63.1,29.99,South,178,0.0,5.0,75,0.00,,---,0.00,VWS V14.01,2013-08-20 17:15:00,
2013-08-20 10:20:00,71.5,62.8,29.99,SW,217,3.0,5.0,74,0.00,,---,0.00,VWS V14.01,2013-08-20 17:20:00,
2013-08-20 10:25:00,71.2,62.9,29.99,SE,144,4.0,7.0,75,0.00,,---,0.00,VWS V14.01,2013-08-20 17:25:00,
2013-08-20 10:30:00,71.5,63.2,29.99,WSW,242,0.0,3.0,75,0.00,,---,0.00,VWS V14.01,2013-08-20 17:30:00,
2013-08-20 10:35:00,72.3,63.6,29.99,WSW,253,0.0,4.0,74,0.00,,---,0.00,VWS V14.01,2013-08-20 17:35:00,
2013-08-20 10:40:00,73.5,63.9,29.98,NE,47,0.0,4.0,72,0.00,,---,0.00,VWS V14.01,2013-08-20 17:40:00,
2013-08-20 10:45:00,73.7,62.9,29.98,SSE,161,0.0,5.0,69,0.00,,---,0.00,VWS V14.01,2013-08-20 17:45:00,
2013-08-20 10:50:00,73.2,63.2,29.98,SSW,211,0.0,5.0,71,0.00,,---,0.00,VWS V14.01,2013-08-20 17:50:00,
2013-08-20 10:55:00,73.7,63.7,29.98,SSW,202,0.0,5.0,71,0.00,,---,0.00,VWS V14.01,2013-08-20 17:55:00,
2013-08-20 11:00:00,73.9,63.1,29.99,SE,134,0.0,4.0,69,0.00,,---,0.00,VWS V14.01,2013-08-20 18:00:00,
2013-08-20 11:05:00,74.5,63.7,29.98,SE,142,0.0,4.0,69,0.00,,---,0.00,VWS V14.01,2013-08-20 18:05:00,
2013-08-20 11:10:00,74.9,64.1,29.98,SSE,154,5.0,5.0,69,0.00,,---,0.00,VWS V14.01,2013-08-20 18:10:00,
2013-08-20 11:15:00,75.2,63.9,29.98,East,80,0.0,7.0,68,0.00,,---,0.00,VWS V14.01,2013-08-20 18:15:00,
2013-08-20 11:20:00,75.5,63.8,29.98,SE,141,0.0,7.0,67,0.00,,---,0.00,VWS V14.01,2013-08-20 18:20:00,
2013-08-20 11:25:00,75.9,64.2,29.98,ESE,121,4.0,7.0,67,0.00,,---,0.00,VWS V14.01,2013-08-20 18:25:00,
2013-08-20 11:30:00,76.6,63.5,29.98,SE,139,0.0,3.0,64,0.00,,---,0.00,VWS V14.01,2013-08-20 18:30:00,
2013-08-20 11:35:00,76.9,63.4,29.98,West,261,2.0,7.0,63,0.00,,---,0.00,VWS V14.01,2013-08-20 18:35:00,
2013-08-20 11:40:00,76.8,64.2,29.98,West,259,0.0,7.0,65,0.00,,---,0.00,VWS V14.01,2013-08-20 18:40:00,
2013-08-20 11:45:00,77.3,63.7,29.98,South,175,2.0,7.0,63,0.00,,---,0.00,VWS V14.01,2013-08-20 18:45:00,
2013-08-20 11:50:00,77.8,63.8,29.97,WSW,256,0.0,7.0,62,0.00,,---,0.00,VWS V14.01,2013-08-20 18:50:00,
2013-08-20 11:55:00,78.2,63.2,29.97,SSE,152,0.0,7.0,60,0.00,,---,0.00,VWS V14.01,2013-08-20 18:55:00,
2013-08-20 12:00:00,78.4,63.4,29.97,WSW,237,0.0,4.0,60,0.00,,---,0.00,VWS V14.01,2013-08-20 19:00:00,
2013-08-20 12:05:00,78.8,63.3,29.97,West,281,0.0,6.0,59,0.00,,---,0.00,VWS V14.01,2013-08-20 19:05:00,
2013-08-20 12:10:00,79.8,63.2,29.97,SE,142,4.0,6.0,57,0.00,,---,0.00,VWS V14.01,2013-08-20 19:10:00,
2013-08-20 12:15:00,79.5,63.4,29.96,SE,138,0.0,7.0,58,0.00,,---,0.00,VWS V14.01,2013-08-20 19:15:00,
2013-08-20 12:20:00,79.2,62.7,29.96,WSW,258,6.0,8.0,57,0.00,,---,0.00,VWS V14.01,2013-08-20 19:20:00,
2013-08-20 12:25:00,79.2,62.7,29.96,WSW,240,2.0,8.0,57,0.00,,---,0.00,VWS V14.01,2013-08-20 19:25:00,
2013-08-20 12:30:00,79.5,63.0,29.95,WSW,258,0.0,5.0,57,0.00,,---,0.00,VWS V14.01,2013-08-20 19:30:00,
2013-08-20 12:35:00,80.4,63.3,29.95,NE,38,0.0,5.0,56,0.00,,---,0.00,VWS V14.01,2013-08-20 19:35:00,
2013-08-20 12:40:00,81.5,63.3,29.95,SSW,207,0.0,7.0,54,0.00,,---,0.00,VWS V14.01,2013-08-20 19:40:00,
2013-08-20 12:45:00,81.2,63.0,29.95,NW,317,0.0,8.0,54,0.00,,---,0.00,VWS V14.01,2013-08-20 19:45:00,
2013-08-20 12:50:00,81.5,62.7,29.95,West,275,1.0,8.0,53,0.00,,---,0.00,VWS V14.01,2013-08-20 19:50:00,
2013-08-20 12:55:00,81.6,62.3,29.95,West,263,1.0,8.0,52,0.00,,---,0.00,VWS V14.01,2013-08-20 19:55:00,
2013-08-20 13:00:00,81.4,63.2,29.95,West,278,0.0,5.0,54,0.00,,---,0.00,VWS V14.01,2013-08-20 20:00:00,
2013-08-20 13:05:00,82.0,63.2,29.94,WSW,256,0.0,6.0,53,0.00,,---,0.00,VWS V14.01,2013-08-20 20:05:00,
2013-08-20 13:10:00,82.5,63.1,29.94,South,185,1.0,6.0,52,0.00,,---,0.00,VWS V14.01,2013-08-20 20:10:00,
2013-08-20 13:15:00,82.7,63.3,29.94,West,279,2.0,8.0,52,0.00,,---,0.00,VWS V14.01,2013-08-20 20:15:00,
2013-08-20 13:20:00,83.6,63.6,29.94,SSE,148,7.0,8.0,51,0.00,,---,0.00,VWS V14.01,2013-08-20 20:20:00,
2013-08-20 13:25:00,83.0,63.0,29.94,West,269,0.0,12.0,51,0.00,,---,0.00,VWS V14.01,2013-08-20 20:25:00,
2013-08-20 13:30:00,83.0,63.0,29.94,SSW,196,1.0,7.0,51,0.00,,---,0.00,VWS V14.01,2013-08-20 20:30:00,
2013-08-20 13:35:00,83.4,63.4,29.94,WSW,239,0.0,7.0,51,0.00,,---,0.00,VWS V14.01,2013-08-20 20:35:00,
2013-08-20 13:40:00,83.5,62.9,29.94,SSE,152,0.0,9.0,50,0.00,,---,0.00,VWS V14.01,2013-08-20 20:40:00,
2013-08-20 13:45:00,84.1,63.5,29.94,East,96,1.0,9.0,50,0.00,,---,0.00,VWS V14.01,2013-08-20 20:45:00,
2013-08-20 13:50:00,84.7,63.5,29.93,ESE,119,1.0,9.0,49,0.00,,---,0.00,VWS V14.01,2013-08-20 20:50:00,
2013-08-20 13:55:00,84.3,62.5,29.93,SE,146,5.0,9.0,48,0.00,,---,0.00,VWS V14.01,2013-08-20 20:55:00,
2013-08-20 14:00:00,84.3,62.5,29.93,NW,306,0.0,6.0,48,0.00,,---,0.00,VWS V14.01,2013-08-20 21:00:00,
2013-08-20 14:05:00,84.8,63.0,29.93,NNW,340,0.0,6.0,48,0.00,,---,0.00,VWS V14.01,2013-08-20 21:05:00,
2013-08-20 14:10:00,84.8,63.0,29.93,South,169,1.0,7.0,48,0.00,,---,0.00,VWS V14.01,2013-08-20 21:10:00,
2013-08-20 14:15:00,84.9,62.4,29.93,SW,223,4.0,9.0,47,0.00,,---,0.00,VWS V14.01,2013-08-20 21:15:00,
2013-08-20 14:20:00,85.2,62.7,29.93,West,263,3.0,9.0,47,0.00,,---,0.00,VWS V14.01,2013-08-20 21:20:00,
2013-08-20 14:25:00,85.6,63.1,29.93,SW,223,1.0,9.0,47,0.00,,---,0.00,VWS V14.01,2013-08-20 21:25:00,
2013-08-20 14:30:00,85.9,62.7,29.93,WNW,290,1.0,3.0,46,0.00,,---,0.00,VWS V14.01,2013-08-20 21:30:00,
2013-08-20 14:35:00,85.6,61.2,29.93,SSW,201,1.0,6.0,44,0.00,,---,0.00,VWS V14.01,2013-08-20 21:35:00,
2013-08-20 14:40:00,85.5,61.8,29.93,SSW,209,1.0,6.0,45,0.00,,---,0.00,VWS V14.01,2013-08-20 21:40:00,
2013-08-20 14:45:00,85.9,61.5,29.92,WNW,292,0.0,6.0,44,0.00,,---,0.00,VWS V14.01,2013-08-20 21:45:00,
2013-08-20 14:50:00,86.4,61.9,29.92,WSW,243,1.0,6.0,44,0.00,,---,0.00,VWS V14.01,2013-08-20 21:50:00,
2013-08-20 14:55:00,86.6,61.5,29.92,WSW,246,0.0,7.0,43,0.00,,---,0.00,VWS V14.01,2013-08-20 21:55:00,
2013-08-20 15:00:00,86.9,61.7,29.92,SSW,202,2.0,5.0,43,0.00,,---,0.00,VWS V14.01,2013-08-20 22:00:00,
2013-08-20 15:05:00,86.7,60.9,29.92,West,266,0.0,5.0,42,0.00,,---,0.00,VWS V14.01,2013-08-20 22:05:00,
2013-08-20 15:10:00,87.1,61.2,29.92,East,96,1.0,5.0,42,0.00,,---,0.00,VWS V14.01,2013-08-20 22:10:00,
2013-08-20 15:15:00,87.2,61.3,29.92,East,93,0.0,5.0,42,0.00,,---,0.00,VWS V14.01,2013-08-20 22:15:00,
2013-08-20 15:20:00,87.2,61.3,29.92,WSW,251,3.0,5.0,42,0.00,,---,0.00,VWS V14.01,2013-08-20 22:20:00,
2013-08-20 15:25:00,87.3,61.4,29.92,SSE,164,0.0,6.0,42,0.00,,---,0.00,VWS V14.01,2013-08-20 22:25:00,
2013-08-20 15:30:00,86.8,61.0,29.92,NNW,338,1.0,7.0,42,0.00,,---,0.00,VWS V14.01,2013-08-20 22:30:00,
2013-08-20 15:35:00,87.3,61.4,29.91,NE,53,0.0,7.0,42,0.00,,---,0.00,VWS V14.01,2013-08-20 22:35:00,
2013-08-20 15:40:00,88.0,60.7,29.91,SW,215,6.0,7.0,40,0.00,,---,0.00,VWS V14.01,2013-08-20 22:40:00,
2013-08-20 15:45:00,87.7,61.1,29.91,South,184,5.0,7.0,41,0.00,,---,0.00,VWS V14.01,2013-08-20 22:45:00,
2013-08-20 15:50:00,87.6,60.3,29.91,SW,216,0.0,7.0,40,0.00,,---,0.00,VWS V14.01,2013-08-20 22:50:00,
2013-08-20 15:55:00,87.9,60.6,29.91,SSW,206,5.0,7.0,40,0.00,,---,0.00,VWS V14.01,2013-08-20 22:55:00,
2013-08-20 16:00:00,88.1,60.0,29.91,SW,232,0.0,4.0,39,0.00,,---,0.00,VWS V14.01,2013-08-20 23:00:00,
2013-08-20 16:05:00,88.9,60.0,29.91,SW,235,0.0,7.0,38,0.00,,---,0.00,VWS V14.01,2013-08-20 23:05:00,
2013-08-20 16:10:00,87.9,60.6,29.91,SW,227,0.0,7.0,40,0.00,,---,0.00,VWS V14.01,2013-08-20 23:10:00,
2013-08-20 16:15:00,88.1,60.8,29.90,SSE,157,0.0,7.0,40,0.00,,---,0.00,VWS V14.01,2013-08-20 23:15:00,
2013-08-20 16:20:00,87.6,60.3,29.91,SSW,196,0.0,8.0,40,0.00,,---,0.00,VWS V14.01,2013-08-20 23:20:00,
2013-08-20 16:25:00,87.0,60.5,29.90,West,273,0.0,8.0,41,0.00,,---,0.00,VWS V14.01,2013-08-20 23:25:00,
2013-08-20 16:30:00,86.8,61.0,29.90,SW,216,4.0,6.0,42,0.00,,---,0.00,VWS V14.01,2013-08-20 23:30:00,
2013-08-20 16:35:00,86.0,60.9,29.91,WSW,245,0.0,6.0,43,0.00,,---,0.00,VWS V14.01,2013-08-20 23:35:00,
2013-08-20 16:40:00,85.4,60.4,29.90,SW,233,0.0,6.0,43,0.00,,---,0.00,VWS V14.01,2013-08-20 23:40:00,
2013-08-20 16:45:00,85.0,60.7,29.90,West,277,1.0,6.0,44,0.00,,---,0.00,VWS V14.01,2013-08-20 23:45:00,
2013-08-20 16:50:00,84.3,60.7,29.90,West,272,4.0,7.0,45,0.00,,---,0.00,VWS V14.01,2013-08-20 23:50:00,
2013-08-20 16:55:00,84.1,61.1,29.90,SW,227,0.0,7.0,46,0.00,,---,0.00,VWS V14.01,2013-08-20 23:55:00,
2013-08-20 17:00:00,84.1,61.1,29.90,NW,317,1.0,4.0,46,0.00,,---,0.00,VWS V14.01,2013-08-21 00:00:00,
2013-08-20 17:05:00,84.1,61.1,29.90,NE,40,0.0,4.0,46,0.00,,---,0.00,VWS V14.01,2013-08-21 00:05:00,
2013-08-20 17:10:00,84.0,61.0,29.89,WSW,254,2.0,7.0,46,0.00,,---,0.00,VWS V14.01,2013-08-21 00:10:00,
2013-08-20 17:15:00,83.8,60.8,29.89,SSW,201,0.0,8.0,46,0.00,,---,0.00,VWS V14.01,2013-08-21 00:15:00,
2013-08-20 17:20:00,83.9,60.9,29.89,SW,230,0.0,8.0,46,0.00,,---,0.00,VWS V14.01,2013-08-21 00:20:00,
2013-08-20 17:25:00,83.9,61.5,29.89,NW,312,0.0,8.0,47,0.00,,---,0.00,VWS V14.01,2013-08-21 00:25:00,
2013-08-20 17:30:00,83.3,61.6,29.89,SW,235,0.0,7.0,48,0.00,,---,0.00,VWS V14.01,2013-08-21 00:30:00,
2013-08-20 17:35:00,83.1,61.4,29.89,West,270,0.0,7.0,48,0.00,,---,0.00,VWS V14.01,2013-08-21 00:35:00,
2013-08-20 17:40:00,82.9,60.6,29.89,SW,225,0.0,7.0,47,0.00,,---,0.00,VWS V14.01,2013-08-21 00:40:00,
2013-08-20 17:45:00,82.6,60.3,29.89,WSW,247,0.0,7.0,47,0.00,,---,0.00,VWS V14.01,2013-08-21 00:45:00,
2013-08-20 17:50:00,82.1,60.5,29.89,West,274,1.0,7.0,48,0.00,,---,0.00,VWS V14.01,2013-08-21 00:50:00,
2013-08-20 17:55:00,81.4,60.4,29.89,ENE,60,0.0,7.0,49,0.00,,---,0.00,VWS V14.01,2013-08-21 00:55:00,
2013-08-20 18:00:00,80.5,60.2,29.89,NNW,342,0.0,4.0,50,0.00,,---,0.00,VWS V14.01,2013-08-21 01:00:00,
2013-08-20 18:05:00,79.8,60.6,29.89,NE,39,0.0,4.0,52,0.00,,---,0.00,VWS V14.01,2013-08-21 01:05:00,
2013-08-20 18:10:00,79.3,60.7,29.89,West,263,0.0,4.0,53,0.00,,---,0.00,VWS V14.01,2013-08-21 01:10:00,
2013-08-20 18:15:00,78.7,60.7,29.89,WSW,258,0.0,5.0,54,0.00,,---,0.00,VWS V14.01,2013-08-21 01:15:00,
2013-08-20 18:19:00,78.3,60.3,29.89,West,269,3.0,5.0,54,0.00,,---,0.00,VWS V14.01,2013-08-21 01:19:00,
2013-08-20 18:24:00,77.7,60.3,29.89,WSW,248,3.0,5.0,55,0.00,,---,0.00,VWS V14.01,2013-08-21 01:24:00,
2013-08-20 18:29:00,77.1,59.7,29.90,WNW,302,0.0,2.0,55,0.00,,---,0.00,VWS V14.01,2013-08-21 01:29:00,
2013-08-20 18:34:00,76.7,59.8,29.89,WNW,298,0.0,3.0,56,0.00,,---,0.00,VWS V14.01,2013-08-21 01:34:00,
2013-08-20 18:39:00,76.2,59.9,29.89,WSW,249,0.0,3.0,57,0.00,,---,0.00,VWS V14.01,2013-08-21 01:39:00,
2013-08-20 18:44:00,75.7,59.4,29.90,WSW,254,0.0,4.0,57,0.00,,---,0.00,VWS V14.01,2013-08-21 01:44:00,
2013-08-20 18:49:00,75.2,59.4,29.90,NNW,340,0.0,4.0,58,0.00,,---,0.00,VWS V14.01,2013-08-21 01:49:00,
2013-08-20 18:54:00,74.8,60.0,29.89,West,280,0.0,4.0,60,0.00,,---,0.00,VWS V14.01,2013-08-21 01:54:00,
2013-08-20 18:59:00,74.4,60.1,29.90,WNW,290,2.0,4.0,61,0.00,,---,0.00,VWS V14.01,2013-08-21 01:59:00,
2013-08-20 19:04:00,74.0,60.2,29.90,SW,228,0.0,4.0,62,0.00,,---,0.00,VWS V14.01,2013-08-21 02:04:00,
2013-08-20 19:09:00,73.5,60.2,29.90,SW,215,0.0,4.0,63,0.00,,---,0.00,VWS V14.01,2013-08-21 02:09:00,
2013-08-20 19:14:00,73.0,60.1,29.91,WSW,250,0.0,4.0,64,0.00,,---,0.00,VWS V14.01,2013-08-21 02:14:00,
2013-08-20 19:19:00,72.6,60.2,29.91,WNW,292,0.0,4.0,65,0.00,,---,0.00,VWS V14.01,2013-08-21 02:19:00,
2013-08-20 19:24:00,72.3,60.3,29.91,WNW,290,0.0,4.0,66,0.00,,---,0.00,VWS V14.01,2013-08-21 02:24:00,
2013-08-20 19:29:00,71.9,60.4,29.91,WNW,295,0.0,0.0,67,0.00,,---,0.00,VWS V14.01,2013-08-21 02:29:00,
2013-08-20 19:34:00,71.5,60.0,29.91,WSW,249,0.0,1.0,67,0.00,,---,0.00,VWS V14.01,2013-08-21 02:34:00,
2013-08-20 19:39:00,71.2,60.1,29.91,WSW,249,0.0,1.0,68,0.00,,---,0.00,VWS V14.01,2013-08-21 02:39:00,
2013-08-20 19:44:00,70.9,59.8,29.91,WSW,239,1.0,2.0,68,0.00,,---,0.00,VWS V14.01,2013-08-21 02:44:00,
2013-08-20 19:49:00,70.6,60.0,29.91,WSW,244,0.0,2.0,69,0.00,,---,0.00,VWS V14.01,2013-08-21 02:49:00,
2013-08-20 19:54:00,70.3,60.1,29.92,WSW,246,0.0,4.0,70,0.00,,---,0.00,VWS V14.01,2013-08-21 02:54:00,
2013-08-20 19:59:00,70.0,59.8,29.92,WSW,246,0.0,0.0,70,0.00,,---,0.00,VWS V14.01,2013-08-21 02:59:00,
2013-08-20 20:04:00,69.7,59.9,29.92,WSW,246,0.0,0.0,71,0.00,,---,0.00,VWS V14.01,2013-08-21 03:04:00,
2013-08-20 20:09:00,69.5,59.7,29.92,WSW,246,0.0,0.0,71,0.00,,---,0.00,VWS V14.01,2013-08-21 03:09:00,
2013-08-20 20:14:00,69.3,59.9,29.92,WSW,246,0.0,0.0,72,0.00,,---,0.00,VWS V14.01,2013-08-21 03:14:00,
2013-08-20 20:19:00,69.0,60.0,29.92,WSW,246,0.0,1.0,73,0.00,,---,0.00,VWS V14.01,2013-08-21 03:19:00,
2013-08-20 20:24:00,68.7,59.7,29.93,WSW,250,0.0,1.0,73,0.00,,---,0.00,VWS V14.01,2013-08-21 03:24:00,
2013-08-20 20:29:00,68.4,59.8,29.93,WSW,250,0.0,0.0,74,0.00,,---,0.00,VWS V14.01,2013-08-21 03:29:00,
2013-08-20 20:34:00,68.1,59.5,29.93,WSW,250,0.0,0.0,74,0.00,,---,0.00,VWS V14.01,2013-08-21 03:34:00,
2013-08-20 20:39:00,67.9,59.7,29.93,WSW,250,0.0,0.0,75,0.00,,---,0.00,VWS V14.01,2013-08-21 03:39:00,
2013-08-20 20:44:00,67.6,59.4,29.93,WSW,250,0.0,0.0,75,0.00,,---,0.00,VWS V14.01,2013-08-21 03:44:00,
2013-08-20 20:49:00,67.3,59.5,29.93,WSW,250,0.0,0.0,76,0.00,,---,0.00,VWS V14.01,2013-08-21 03:49:00,
2013-08-20 20:54:00,67.1,59.3,29.94,WSW,250,0.0,1.0,76,0.00,,---,0.00,VWS V14.01,2013-08-21 03:54:00,
2013-08-20 20:59:00,66.9,59.5,29.94,WSW,250,0.0,0.0,77,0.00,,---,0.00,VWS V14.01,2013-08-21 03:59:00,
2013-08-20 21:01:00,66.8,59.4,29.94,WSW,250,0.0,0.0,77,0.00,,---,0.00,VWS V14.01,2013-08-21 04:01:00,
2013-08-20 21:06:00,66.6,59.5,29.94,WSW,250,0.0,0.0,78,0.00,,---,0.00,VWS V14.01,2013-08-21 04:06:00,
2013-08-20 21:11:00,66.5,59.4,29.94,WSW,250,0.0,1.0,78,0.00,,---,0.00,VWS V14.01,2013-08-21 04:11:00,
2013-08-20 21:16:00,66.2,59.5,29.94,West,264,0.0,4.0,79,0.00,,---,0.00,VWS V14.01,2013-08-21 04:16:00,
2013-08-20 21:21:00,66.0,59.7,29.95,West,271,0.0,4.0,80,0.00,,---,0.00,VWS V14.01,2013-08-21 04:21:00,
2013-08-20 21:26:00,65.8,59.5,29.94,WSW,250,0.0,4.0,80,0.00,,---,0.00,VWS V14.01,2013-08-21 04:26:00,
2013-08-20 21:31:00,65.6,59.3,29.95,WSW,250,0.0,1.0,80,0.00,,---,0.00,VWS V14.01,2013-08-21 04:31:00,
2013-08-20 21:36:00,65.4,59.4,29.95,WSW,250,0.0,1.0,81,0.00,,---,0.00,VWS V14.01,2013-08-21 04:36:00,
2013-08-20 21:41:00,65.2,58.9,29.95,SSW,206,1.0,1.0,80,0.00,,---,0.00,VWS V14.01,2013-08-21 04:41:00,
2013-08-20 21:46:00,65.0,59.0,29.95,WSW,248,0.0,2.0,81,0.00,,---,0.00,VWS V14.01,2013-08-21 04:46:00,
2013-08-20 21:51:00,64.9,58.9,29.95,WSW,248,0.0,2.0,81,0.00,,---,0.00,VWS V14.01,2013-08-21 04:51:00,
2013-08-20 21:56:00,64.7,59.1,29.95,WSW,248,0.0,2.0,82,0.00,,---,0.00,VWS V14.01,2013-08-21 04:56:00,
2013-08-20 22:01:00,64.5,58.9,29.95,WSW,248,0.0,0.0,82,0.00,,---,0.00,VWS V14.01,2013-08-21 05:01:00,
2013-08-20 22:06:00,64.4,59.1,29.95,WSW,248,0.0,0.0,83,0.00,,---,0.00,VWS V14.01,2013-08-21 05:06:00,
2013-08-20 22:11:00,64.2,58.9,29.95,WSW,248,0.0,1.0,83,0.00,,---,0.00,VWS V14.01,2013-08-21 05:11:00,
2013-08-20 22:16:00,64.1,58.8,29.95,WSW,248,0.0,1.0,83,0.00,,---,0.00,VWS V14.01,2013-08-21 05:16:00,
2013-08-20 22:21:00,63.9,58.6,29.95,WSW,248,0.0,1.0,83,0.00,,---,0.00,VWS V14.01,2013-08-21 05:21:00,
2013-08-20 22:26:00,63.8,58.5,29.95,WSW,248,0.0,1.0,83,0.00,,---,0.00,VWS V14.01,2013-08-21 05:26:00,
2013-08-20 22:31:00,63.7,58.8,29.95,WSW,248,0.0,0.0,84,0.00,,---,0.00,VWS V14.01,2013-08-21 05:31:00,
2013-08-20 22:36:00,63.6,58.7,29.95,WSW,248,0.0,0.0,84,0.00,,---,0.00,VWS V14.01,2013-08-21 05:36:00,
2013-08-20 22:41:00,63.5,58.6,29.96,WSW,248,0.0,0.0,84,0.00,,---,0.00,VWS V14.01,2013-08-21 05:41:00,
2013-08-20 22:46:00,63.3,58.4,29.96,WSW,248,0.0,0.0,84,0.00,,---,0.00,VWS V14.01,2013-08-21 05:46:00,
2013-08-20 22:51:00,63.2,58.6,29.96,WSW,248,0.0,0.0,85,0.00,,---,0.00,VWS V14.01,2013-08-21 05:51:00,
2013-08-20 22:56:00,63.1,58.5,29.95,WSW,248,0.0,0.0,85,0.00,,---,0.00,VWS V14.01,2013-08-21 05:56:00,
2013-08-20 23:01:00,63.0,58.8,29.95,WSW,248,0.0,0.0,86,0.00,,---,0.00,VWS V14.01,2013-08-21 06:01:00,
2013-08-20 23:06:00,62.9,58.7,29.95,WSW,248,0.0,0.0,86,0.00,,---,0.00,VWS V14.01,2013-08-21 06:06:00,
2013-08-20 23:11:00,62.9,58.7,29.95,WSW,248,0.0,0.0,86,0.00,,---,0.00,VWS V14.01,2013-08-21 06:11:00,
2013-08-20 23:16:00,62.7,58.5,29.96,WSW,248,0.0,0.0,86,0.00,,---,0.00,VWS V14.01,2013-08-21 06:16:00,
2013-08-20 23:21:00,62.6,58.4,29.96,WSW,248,0.0,0.0,86,0.00,,---,0.00,VWS V14.01,2013-08-21 06:21:00,
2013-08-20 23:26:00,62.7,58.8,29.96,WSW,248,0.0,1.0,87,0.00,,---,0.00,VWS V14.01,2013-08-21 06:26:00,
2013-08-20 23:31:00,62.6,59.0,29.96,WSW,248,0.0,0.0,88,0.00,,---,0.00,VWS V14.01,2013-08-21 06:31:00,
2013-08-20 23:36:00,62.5,58.6,29.96,WSW,248,0.0,0.0,87,0.00,,---,0.00,VWS V14.01,2013-08-21 06:36:00,
2013-08-20 23:41:00,62.4,58.5,29.96,WSW,248,0.0,0.0,87,0.00,,---,0.00,VWS V14.01,2013-08-21 06:41:00,
2013-08-20 23:46:00,62.3,58.4,29.96,WSW,248,0.0,0.0,87,0.00,,---,0.00,VWS V14.01,2013-08-21 06:46:00,
2013-08-20 23:51:00,62.1,58.2,29.97,WSW,248,0.0,0.0,87,0.00,,---,0.00,VWS V14.01,2013-08-21 06:51:00,
2013-08-20 23:56:00,61.9,58.0,29.96,WSW,248,0.0,0.0,87,0.00,,---,0.00,VWS V14.01,2013-08-21 06:56:00,